| time (UTC) | temp F | wind direction | speed MPH | gust MPH | rain 1hr in | rain 24hr in | rain mn in | humidity % | barometer mb |
| 20260906103013 | 57 | 247 | 0.0 | 0.0 | 0.00 | 0.00 | 0.00 | 88 | 1014.7 |
| 20260906101512 | 57 | 247 | 0.0 | 0.0 | 0.00 | 0.00 | 0.00 | 85 | 1014.6 |
| 20260906100016 | 57 | 247 | 0.0 | 0.0 | 0.00 | 0.00 | 0.00 | 87 | 1014.4 |
| 20260906094509 | 57 | 247 | 0.0 | 0.0 | 0.00 | 0.00 | 0.00 | 86 | 1014.7 |
| 20260906093010 | 57 | 247 | 0.0 | 0.0 | 0.00 | 0.00 | 0.00 | 86 | 1014.5 |
| 20260906091520 | 58 | 247 | 0.0 | 0.0 | 0.00 | 0.00 | 0.00 | 85 | 1014.5 |
| 20260906090008 | 58 | 247 | 0.0 | 0.0 | 0.00 | 0.00 | 0.00 | 83 | 1014.5 |
| 20260906084506 | 59 | 247 | 0.0 | 0.0 | 0.00 | 0.00 | 0.00 | 81 | 1014.5 |
| 20260906083012 | 58 | 247 | 0.0 | 1.0 | 0.00 | 0.00 | 0.00 | 81 | 1014.5 |
| 20260906081511 | 58 | 285 | 0.0 | 0.0 | 0.00 | 0.00 | 0.00 | 82 | 1014.5 |
| 20260906080004 | 57 | 200 | 0.0 | 0.0 | 0.00 | 0.00 | 0.00 | 84 | 1014.6 |
| 20260906074502 | 57 | 200 | 0.0 | 0.0 | 0.00 | 0.00 | 0.00 | 85 | 1014.7 |
| 20260906073101 | 58 | 200 | 0.0 | 0.0 | 0.00 | 0.00 | 0.00 | 84 | 1014.8 |
| 20260906071603 | 59 | 200 | 0.0 | 0.0 | 0.00 | 0.00 | 0.00 | 82 | 1014.9 |
| 20260906070054 | 60 | 200 | 0.0 | 1.0 | 0.00 | 0.00 | 0.00 | 79 | 1015.0 |
| 20260906064553 | 60 | 292 | 0.0 | 3.0 | 0.00 | 0.00 | 0.00 | 78 | 1015.0 |
| 20260906063053 | 60 | 259 | 0.0 | 4.0 | 0.00 | 0.00 | 0.00 | 78 | 1014.8 |
| 20260906061557 | 60 | 306 | 0.0 | 8.0 | 0.00 | 0.00 | 0.00 | 78 | 1014.8 |
| 20260906060052 | 60 | 264 | 2.0 | 7.0 | 0.00 | 0.00 | 0.00 | 78 | 1014.9 |
| 20260906054552 | 60 | 283 | 1.0 | 6.0 | 0.00 | 0.00 | 0.00 | 78 | 1014.9 |
| 20260906053051 | 60 | 278 | 1.0 | 6.0 | 0.00 | 0.00 | 0.00 | 77 | 1015.0 |
| 20260906051601 | 60 | 267 | 2.0 | 8.0 | 0.00 | 0.00 | 0.00 | 77 | 1015.2 |
| 20260906050054 | 61 | 299 | 1.0 | 8.0 | 0.00 | 0.00 | 0.00 | 77 | 1015.2 |
| 20260906044551 | 60 | 291 | 0.0 | 6.0 | 0.00 | 0.00 | 0.00 | 77 | 1015.4 |
| 20260906043050 | 61 | 287 | 0.0 | 6.0 | 0.00 | 0.00 | 0.00 | 77 | 1015.3 |
| 20260906041550 | 61 | 267 | 2.0 | 8.0 | 0.00 | 0.00 | 0.00 | 77 | 1015.2 |
| 20260906040049 | 61 | 279 | 4.0 | 9.0 | 0.00 | 0.00 | 0.00 | 77 | 1015.4 |
| 20260906034549 | 61 | 285 | 0.0 | 4.0 | 0.00 | 0.00 | 0.00 | 78 | 1015.3 |
| 20260906033052 | 62 | 286 | 0.0 | 8.0 | 0.00 | 0.00 | 0.00 | 76 | 1015.2 |
| 20260906031558 | 62 | 303 | 1.0 | 5.0 | 0.00 | 0.00 | 0.00 | 73 | 1015.0 |
| 20260906030048 | 63 | 279 | 0.0 | 5.0 | 0.00 | 0.00 | 0.00 | 72 | 1015.0 |
| 20260906024547 | 65 | 157 | 0.0 | 0.0 | 0.00 | 0.00 | 0.00 | 70 | 1015.0 |
| 20260906023050 | 66 | 157 | 0.0 | 0.0 | 0.00 | 0.00 | 0.00 | 62 | 1014.9 |
| 20260906021546 | 68 | 157 | 0.0 | 0.0 | 0.00 | 0.00 | 0.00 | 61 | 1014.9 |
| 20260906020049 | 68 | 157 | 0.0 | 0.0 | 0.00 | 0.00 | 0.00 | 59 | 1014.9 |
| 20260906014545 | 69 | 157 | 0.0 | 0.0 | 0.00 | 0.00 | 0.00 | 57 | 1014.9 |
| 20260906013044 | 69 | 157 | 0.0 | 0.0 | 0.00 | 0.00 | 0.00 | 57 | 1014.9 |
| 20260906011544 | 70 | 157 | 0.0 | 0.0 | 0.00 | 0.00 | 0.00 | 56 | 1014.9 |
| 20260906010042 | 71 | 157 | 0.0 | 1.0 | 0.00 | 0.00 | 0.00 | 54 | 1015.0 |
| 20260906004540 | 72 | 157 | 0.0 | 1.0 | 0.00 | 0.00 | 0.00 | 52 | 1015.0 |
| 20260906003041 | 72 | 84 | 0.0 | 2.0 | 0.00 | 0.00 | 0.00 | 49 | 1015.0 |
| 20260906001538 | 72 | 295 | 0.0 | 3.0 | 0.00 | 0.00 | 0.00 | 51 | 1014.9 |
| 20260906000038 | 72 | 246 | 0.0 | 3.0 | 0.00 | 0.00 | 0.00 | 51 | 1015.0 |
| 20260905234537 | 72 | 206 | 0.0 | 4.0 | 0.00 | 0.00 | 0.00 | 53 | 1015.0 |
| 20260905233040 | 72 | 171 | 0.0 | 0.0 | 0.00 | 0.00 | 0.00 | 52 | 1015.1 |
| 20260905231533 | 71 | 239 | 0.0 | 2.0 | 0.00 | 0.00 | 0.00 | 50 | 1015.1 |
| 20260905230030 | 71 | 277 | 0.0 | 7.0 | 0.00 | 0.00 | 0.00 | 53 | 1015.3 |
| 20260905224533 | 70 | 200 | 0.0 | 5.0 | 0.00 | 0.00 | 0.00 | 56 | 1015.4 |
| 20260905223023 | 69 | 200 | 0.0 | 6.0 | 0.00 | 0.00 | 0.00 | 58 | 1015.5 |
| 20260905221521 | 68 | 200 | 0.0 | 5.0 | 0.00 | 0.00 | 0.00 | 59 | 1015.7 |
| 20260905220021 | 69 | 200 | 0.0 | 5.0 | 0.00 | 0.01 | 0.00 | 57 | 1015.7 |
| 20260905214519 | 68 | 197 | 0.0 | 6.0 | 0.00 | 0.01 | 0.00 | 59 | 1015.9 |
| 20260905213017 | 69 | 197 | 1.0 | 6.0 | 0.00 | 0.01 | 0.00 | 62 | 1016.0 |
| 20260905211514 | 68 | 197 | 1.0 | 6.0 | 0.00 | 0.01 | 0.00 | 66 | 1016.2 |
| 20260905210013 | 67 | 197 | 1.0 | 8.0 | 0.00 | 0.02 | 0.00 | 64 | 1016.3 |
| 20260905204511 | 66 | 181 | 0.0 | 2.0 | 0.00 | 0.02 | 0.00 | 68 | 1016.3 |
| 20260905203006 | 64 | 181 | 1.0 | 5.0 | 0.00 | 0.02 | 0.00 | 71 | 1016.5 |
| 20260905201506 | 63 | 181 | 0.0 | 5.0 | 0.00 | 0.02 | 0.00 | 72 | 1016.5 |
| 20260905200002 | 63 | 181 | 0.0 | 0.0 | 0.00 | 0.02 | 0.00 | 73 | 1016.6 |
| 20260905194600 | 62 | 180 | 0.0 | 2.0 | 0.00 | 0.02 | 0.00 | 78 | 1016.7 |
| 20260905193058 | 62 | 179 | 0.0 | 4.0 | 0.00 | 0.02 | 0.00 | 78 | 1016.8 |
| 20260905191557 | 62 | 179 | 0.0 | 3.0 | 0.00 | 0.02 | 0.00 | 81 | 1016.8 |
| 20260905190057 | 61 | 179 | 0.0 | 1.0 | 0.00 | 0.03 | 0.00 | 81 | 1016.9 |
| 20260905184600 | 62 | 179 | 0.0 | 2.0 | 0.00 | 0.03 | 0.00 | 80 | 1016.9 |
| 20260905183058 | 62 | 179 | 0.0 | 4.0 | 0.00 | 0.03 | 0.00 | 83 | 1017.0 |
| 20260905181605 | 61 | 179 | 0.0 | 3.0 | 0.00 | 0.03 | 0.00 | 83 | 1017.1 |
| 20260905180050 | 60 | 179 | 0.0 | 1.0 | 0.00 | 0.03 | 0.00 | 86 | 1017.1 |
| 20260905174552 | 59 | 178 | 0.0 | 0.0 | 0.00 | 0.03 | 0.00 | 88 | 1017.2 |
| 20260905173046 | 59 | 178 | 0.0 | 0.0 | 0.00 | 0.03 | 0.00 | 89 | 1017.2 |
| 20260905171545 | 58 | 178 | 0.0 | 1.0 | 0.00 | 0.03 | 0.00 | 89 | 1017.2 |
| 20260905170042 | 58 | 178 | 0.0 | 1.0 | 0.00 | 0.03 | 0.00 | 91 | 1017.1 |
| 20260905164541 | 58 | 178 | 0.0 | 0.0 | 0.00 | 0.03 | 0.00 | 91 | 1017.1 |
| 20260905163040 | 58 | 178 | 0.0 | 1.0 | 0.00 | 0.03 | 0.00 | 91 | 1017.1 |
| 20260905161537 | 57 | 178 | 0.0 | 1.0 | 0.00 | 0.03 | 0.00 | 95 | 1017.1 |
| 20260905154532 | 55 | 178 | 0.0 | 0.0 | 0.00 | 0.03 | 0.00 | 97 | 1017.1 |
| 20260905153030 | 55 | 178 | 0.0 | 0.0 | 0.00 | 0.03 | 0.00 | 97 | 1017.2 |
| 20260905151534 | 55 | 178 | 0.0 | 0.0 | 0.00 | 0.03 | 0.00 | 98 | 1017.1 |
| 20260905150028 | 54 | 178 | 0.0 | 0.0 | 0.00 | 0.03 | 0.00 | 98 | 1017.2 |
| 20260905144525 | 54 | 178 | 0.0 | 0.0 | 0.00 | 0.03 | 0.00 | 99 | 1017.0 |
| 20260905143021 | 53 | 178 | 0.0 | 0.0 | 0.00 | 0.03 | 0.00 | 98 | 1017.0 |
| 20260905141521 | 52 | 178 | 0.0 | 0.0 | 0.00 | 0.03 | 0.00 | 98 | 1017.0 |
| 20260905140020 | 52 | 178 | 0.0 | 0.0 | 0.00 | 0.06 | 0.00 | 98 | 1016.9 |
| 20260905134518 | 52 | 178 | 0.0 | 0.0 | 0.00 | 0.06 | 0.00 | 98 | 1016.9 |
| 20260905133018 | 52 | 178 | 0.0 | 0.0 | 0.00 | 0.06 | 0.00 | 98 | 1016.8 |
| 20260905131517 | 52 | 178 | 0.0 | 0.0 | 0.00 | 0.06 | 0.00 | 98 | 1016.8 |
| 20260905130018 | 52 | 178 | 0.0 | 0.0 | 0.00 | 0.15 | 0.00 | 98 | 1016.8 |
| 20260905124514 | 52 | 178 | 0.0 | 0.0 | 0.00 | 0.15 | 0.00 | 98 | 1016.6 |
| 20260905123015 | 52 | 178 | 0.0 | 0.0 | 0.00 | 0.15 | 0.00 | 98 | 1016.6 |
| 20260905121513 | 52 | 178 | 0.0 | 0.0 | 0.00 | 0.15 | 0.00 | 97 | 1016.5 |
| 20260905120013 | 52 | 178 | 0.0 | 0.0 | 0.00 | 0.17 | 0.00 | 97 | 1016.5 |
| 20260905114513 | 52 | 178 | 0.0 | 0.0 | 0.00 | 0.17 | 0.00 | 98 | 1016.4 |
| 20260905113011 | 52 | 178 | 0.0 | 0.0 | 0.00 | 0.17 | 0.00 | 98 | 1016.4 |
| 20260905111510 | 52 | 178 | 0.0 | 0.0 | 0.00 | 0.17 | 0.00 | 98 | 1016.3 |
| 20260905110011 | 52 | 178 | 0.0 | 0.0 | 0.00 | 0.18 | 0.00 | 98 | 1016.4 |
| 20260905104508 | 52 | 178 | 0.0 | 0.0 | 0.00 | 0.18 | 0.00 | 98 | 1016.5 |